TimeCST,TemperatureF,Dew PointF,Humidity,Sea Level PressureIn,VisibilityMPH,Wind Direction,Wind SpeedMPH,Gust SpeedMPH,PrecipitationIn,Events,Conditions,WindDirDegrees,DateUTC
12:55 AM,-23.1,-27.9,78,30.33,10.0,West,4.6,-,N/A,,Mostly Cloudy,260,2013-01-22 06:55:00
1:55 AM,-23.1,-27.9,78,30.35,10.0,West,5.8,-,N/A,,Clear,270,2013-01-22 07:55:00
2:55 AM,-24.0,-29.0,77,30.35,10.0,Calm,Calm,-,N/A,,Clear,0,2013-01-22 08:55:00
3:55 AM,-25.1,-29.9,78,30.36,10.0,Calm,Calm,-,N/A,,Clear,0,2013-01-22 09:55:00
4:55 AM,-25.1,-29.9,78,30.37,10.0,West,4.6,-,N/A,,Clear,270,2013-01-22 10:55:00
5:55 AM,-26.0,-32.1,73,30.38,10.0,West,3.5,-,N/A,,Clear,270,2013-01-22 11:55:00
6:55 AM,-27.9,-33.0,77,30.37,10.0,Calm,Calm,-,N/A,,Clear,0,2013-01-22 12:55:00
7:55 AM,-29.9,-9999,N/A,30.37,10.0,Calm,Calm,-,N/A,,Clear,0,2013-01-22 13:55:00
8:55 AM,-27.0,-33.0,73,30.38,10.0,Calm,Calm,-,N/A,,Clear,0,2013-01-22 14:55:00
9:55 AM,-20.0,-25.1,78,30.38,10.0,WSW,4.6,-,N/A,,Clear,240,2013-01-22 15:55:00
10:55 AM,-15.0,-22.0,71,30.38,10.0,West,5.8,-,N/A,,Clear,260,2013-01-22 16:55:00
11:55 AM,-11.0,-18.9,68,30.35,10.0,West,4.6,-,N/A,,Clear,270,2013-01-22 17:55:00
12:55 PM,-8.0,-17.0,65,30.34,10.0,WSW,8.1,-,N/A,,Clear,240,2013-01-22 18:55:00
1:55 PM,-5.1,-15.0,62,30.31,10.0,West,6.9,-,N/A,,Clear,270,2013-01-22 19:55:00
2:55 PM,-4.0,-14.1,62,30.31,10.0,West,6.9,-,N/A,,Clear,260,2013-01-22 20:55:00
3:55 PM,-2.9,-13.0,62,30.30,10.0,West,3.5,-,N/A,,Clear,260,2013-01-22 21:55:00
4:55 PM,-5.1,-13.0,69,30.29,10.0,West,3.5,-,N/A,,Partly Cloudy,260,2013-01-22 22:55:00
5:55 PM,-9.0,-14.1,79,30.28,10.0,SSW,3.5,-,N/A,,Partly Cloudy,210,2013-01-22 23:55:00
6:55 PM,-11.0,-15.0,83,30.26,10.0,SSW,4.6,-,N/A,,Mostly Cloudy,210,2013-01-23 00:55:00
7:55 PM,-8.0,-14.1,75,30.25,10.0,WSW,6.9,-,N/A,,Partly Cloudy,240,2013-01-23 01:55:00
8:55 PM,-9.0,-15.0,75,30.24,10.0,SW,6.9,-,N/A,,Clear,230,2013-01-23 02:55:00
9:55 PM,-11.9,-17.0,78,30.22,10.0,SW,4.6,-,N/A,,Clear,220,2013-01-23 03:55:00
10:55 PM,-15.0,-18.9,82,30.22,10.0,SSW,3.5,-,N/A,,Clear,200,2013-01-23 04:55:00
11:55 PM,-16.1,-20.0,82,30.21,10.0,Calm,Calm,-,N/A,,Overcast,0,2013-01-23 05:55:00